GW2235 Weather Reports


time (UTC)temp
F
wind
direction
speed
knots
gust
knots
rain 1hr
in
rain 24hr
in
rain mn
in
humidity
%
barometer
mb
20260504081502 32 198 0.0 0.0 0.00 0.00 0.00 85 1013.7
20260504044457 36 198 0.0 0.0 0.00 0.00 0.00 77 1013.6
20260504043005 36 198 0.0 0.0 0.00 0.00 0.00 76 1013.5
20260504040006 37 198 0.0 0.0 0.00 0.00 0.00 74 1013.2
20260504034501 37 198 0.0 1.7 0.00 0.00 0.00 74 1013.1
20260504033005 37 198 0.0 0.0 0.00 0.00 0.00 72 1013.0
20260504031504 38 198 0.0 0.0 0.00 0.00 0.00 70 1013.0
20260504030004 38 198 0.0 0.0 0.00 0.00 0.00 69 1013.1
20260504024503 39 198 0.0 0.0 0.00 0.00 0.00 67 1013.1
20260504023004 40 198 0.0 0.0 0.00 0.00 0.00 66 1013.1
20260504021505 40 198 0.0 0.0 0.00 0.00 0.00 64 1013.1
20260504020006 41 198 0.0 0.0 0.00 0.00 0.00 62 1013.1
20260504014504 42 198 0.0 0.0 0.00 0.00 0.00 62 1013.0
20260504013005 43 198 0.0 0.0 0.00 0.00 0.00 61 1012.9
20260504011502 45 198 0.0 0.0 0.00 0.00 0.00 59 1012.6
20260504010005 46 198 0.0 0.0 0.00 0.00 0.00 55 1012.6
20260504003005 51 198 0.0 0.0 0.00 0.00 0.00 41 1012.4
20260503234502 53 248 1.7 3.5 0.00 0.00 0.00 35 1011.9
20260503233002 54 232 3.5 7.8 0.00 0.00 0.00 36 1011.6
20260503231500 54 163 4.3 9.6 0.00 0.00 0.00 34 1011.6
20260503230004 55 213 4.3 13.0 0.00 0.00 0.00 33 1011.6
20260503224501 55 213 4.3 13.0 0.00 0.00 0.00 34 1011.5
20260503223004 55 193 5.2 12.2 0.00 0.00 0.00 36 1011.6
20260503221500 55 258 4.3 13.0 0.00 0.00 0.00 34 1011.5
20260503220005 55 291 4.3 12.2 0.00 0.00 0.00 32 1011.4
20260503214502 55 200 6.1 13.0 0.00 0.00 0.00 31 1011.4
20260503213000 54 188 6.1 14.8 0.00 0.00 0.00 32 1011.2
20260503211503 55 298 6.1 11.3 0.00 0.00 0.00 34 1011.1
20260503210006 54 243 5.2 12.2 0.00 0.00 0.00 34 1011.2
20260503204504 54 321 5.2 10.4 0.00 0.00 0.00 29 1010.9
20260503203003 55 218 6.1 10.4 0.00 0.00 0.00 32 1011.0
20260503201501 54 235 6.1 17.4 0.00 0.00 0.00 30 1011.2
20260503200006 55 141 5.2 14.8 0.00 0.00 0.00 29 1011.4
20260503194502 53 192 7.0 18.2 0.00 0.00 0.00 30 1011.6
20260503193004 53 236 7.0 16.5 0.00 0.00 0.00 28 1011.5
20260503191503 53 282 6.1 13.9 0.00 0.00 0.00 31 1011.7
20260503190002 52 251 7.8 18.2 0.00 0.00 0.00 31 1011.9
20260503184501 51 265 8.7 15.6 0.00 0.00 0.00 31 1012.1
20260503183004 51 280 7.8 13.0 0.00 0.00 0.00 32 1012.4
20260503181501 50 225 8.7 14.8 0.00 0.00 0.00 33 1012.5
20260503180002 50 279 7.8 17.4 0.00 0.00 0.00 38 1012.7
20260503174500 49 219 6.1 13.0 0.00 0.00 0.00 36 1012.8
20260503173001 48 184 6.1 14.8 0.00 0.00 0.00 37 1013.1
20260503171501 49 223 7.8 14.8 0.00 0.00 0.00 34 1012.9